REV2140 EGNX-EGNS

Flight info

Callsign REV2140
Flight time 0h 50m
Altitude 10000
Route TNT Q4 WAL L10 KELLY
Aircraft F406/L-SDFR/C

Departure

Time 2026-04-08 12:59
Airport East Midlands Airport (EGNX)

Arrival

Time 2026-04-08 13:49
Airport Isle of Man Airport (EGNS)
Time Latitude Longitude Altitude Speed Heading
2026-04-08 12:33 52.82606 -1.34415 295 ft 0 kts 268°
2026-04-08 12:51 52.82606 -1.34446 296 ft 6 kts 273°
2026-04-08 12:52 52.82644 -1.34481 295 ft 9 kts
2026-04-08 12:52 52.82723 -1.34485 295 ft 13 kts 359°
2026-04-08 12:52 52.82809 -1.34487 295 ft 13 kts 13°
2026-04-08 12:52 52.82882 -1.34415 300 ft 10 kts
2026-04-08 12:53 52.82907 -1.34317 299 ft 16 kts 95°
2026-04-08 12:53 52.82908 -1.34066 295 ft 24 kts 88°
2026-04-08 12:53 52.82913 -1.33796 299 ft 23 kts 88°
2026-04-08 12:53 52.82918 -1.33515 299 ft 24 kts 89°
2026-04-08 12:54 52.82923 -1.33238 297 ft 25 kts 89°
2026-04-08 12:54 52.82929 -1.32944 297 ft 25 kts 89°
2026-04-08 12:54 52.82955 -1.32783 298 ft 12 kts 43°
2026-04-08 12:54 52.82990 -1.32721 298 ft 2 kts 52°
2026-04-08 12:55 52.82995 -1.32717 296 ft 1 kts 354°
2026-04-08 12:55 52.82996 -1.32718 296 ft 0 kts 348°
2026-04-08 12:57 52.82999 -1.32717 296 ft 1 kts 12°
2026-04-08 12:57 52.83016 -1.32689 297 ft 10 kts 47°
2026-04-08 12:57 52.83090 -1.32612 297 ft 9 kts 340°
2026-04-08 12:57 52.83103 -1.32663 295 ft 0 kts 266°
2026-04-08 12:58 52.83095 -1.33122 301 ft 91 kts 267°
2026-04-08 12:58 52.83088 -1.34497 394 ft 138 kts 270°
2026-04-08 12:58 52.83105 -1.36129 903 ft 145 kts 271°
2026-04-08 12:59 52.83109 -1.37790 1477 ft 146 kts 265°
2026-04-08 12:59 52.83080 -1.39539 1896 ft 159 kts 271°
2026-04-08 12:59 52.83229 -1.41379 2445 ft 161 kts 286°
2026-04-08 12:59 52.83774 -1.43007 2982 ft 164 kts 304°
2026-04-08 13:00 52.84526 -1.44471 3474 ft 170 kts 310°
2026-04-08 13:00 52.85363 -1.45861 3988 ft 169 kts 313°
2026-04-08 13:00 52.86283 -1.47107 4553 ft 174 kts 320°
2026-04-08 13:00 52.87328 -1.48195 5086 ft 180 kts 325°
2026-04-08 13:01 52.88411 -1.49283 5477 ft 185 kts 317°
2026-04-08 13:01 52.89289 -1.50822 5733 ft 189 kts 305°
2026-04-08 13:01 52.90137 -1.52514 6003 ft 192 kts 305°
2026-04-08 13:01 52.91009 -1.54180 6274 ft 193 kts 307°
2026-04-08 13:02 52.91897 -1.55863 6431 ft 197 kts 307°
2026-04-08 13:02 52.92818 -1.57548 6680 ft 196 kts 308°
2026-04-08 13:02 52.93759 -1.59184 6994 ft 195 kts 310°
2026-04-08 13:02 52.94918 -1.60421 7243 ft 206 kts 336°
2026-04-08 13:03 52.96326 -1.61006 7515 ft 208 kts 342°
2026-04-08 13:03 52.97734 -1.61454 7772 ft 212 kts 346°
2026-04-08 13:03 52.99222 -1.61757 7906 ft 218 kts 350°
2026-04-08 13:03 53.00736 -1.61938 8257 ft 215 kts 352°
2026-04-08 13:04 53.02213 -1.62039 8674 ft 212 kts 351°
2026-04-08 13:05 53.03383 -1.62362 8822 ft 215 kts 340°
2026-04-08 13:05 53.04781 -1.63204 9007 ft 211 kts 320°
2026-04-08 13:05 53.05697 -1.64992 9198 ft 201 kts 286°
2026-04-08 13:05 53.05792 -1.67209 9380 ft 192 kts 254°
2026-04-08 13:06 53.05739 -1.69430 9573 ft 200 kts 279°
2026-04-08 13:06 53.06139 -1.71647 9857 ft 203 kts 282°
2026-04-08 13:06 53.06575 -1.73811 10173 ft 192 kts 281°
2026-04-08 13:06 53.06921 -1.75886 10452 ft 187 kts 279°
2026-04-08 13:07 53.07271 -1.77987 10561 ft 194 kts 280°
2026-04-08 13:07 53.07649 -1.80201 10478 ft 203 kts 280°
2026-04-08 13:07 53.08040 -1.82478 10380 ft 206 kts 280°
2026-04-08 13:07 53.08433 -1.84797 10253 ft 210 kts 280°
2026-04-08 13:08 53.08824 -1.87098 10305 ft 205 kts 280°
2026-04-08 13:08 53.09209 -1.89366 10321 ft 203 kts 280°
2026-04-08 13:08 53.09590 -1.91625 10334 ft 203 kts 280°
2026-04-08 13:08 53.09972 -1.93888 10340 ft 204 kts 280°
2026-04-08 13:09 53.10349 -1.96123 10337 ft 203 kts 280°
2026-04-08 13:09 53.10731 -1.98387 10344 ft 203 kts 280°
2026-04-08 13:09 53.11112 -2.00655 10340 ft 203 kts 280°
2026-04-08 13:09 53.11493 -2.02916 10345 ft 203 kts 280°
2026-04-08 13:10 53.11872 -2.05183 10346 ft 203 kts 280°
2026-04-08 13:10 53.12253 -2.07445 10346 ft 202 kts 280°
2026-04-08 13:10 53.12630 -2.09697 10344 ft 202 kts 280°
2026-04-08 13:10 53.13004 -2.11938 10344 ft 197 kts 280°
2026-04-08 13:11 53.13364 -2.14084 10350 ft 189 kts 280°
2026-04-08 13:11 53.13707 -2.16153 10351 ft 187 kts 279°
2026-04-08 13:11 53.14052 -2.18230 10348 ft 186 kts 279°
2026-04-08 13:11 53.14396 -2.20304 10343 ft 185 kts 279°
2026-04-08 13:12 53.14914 -2.22293 10345 ft 189 kts 291°
2026-04-08 13:12 53.16208 -2.26121 10347 ft 188 kts 290°
2026-04-08 13:12 53.16779 -2.28086 10345 ft 188 kts 289°
2026-04-08 13:13 53.17360 -2.30042 10343 ft 188 kts 290°
2026-04-08 13:13 53.17945 -2.31994 10347 ft 188 kts 290°
2026-04-08 13:13 53.18526 -2.33950 10347 ft 188 kts 290°
2026-04-08 13:13 53.19100 -2.35880 10348 ft 188 kts 290°
2026-04-08 13:14 53.19681 -2.37835 10346 ft 188 kts 290°
2026-04-08 13:14 53.20263 -2.39794 10348 ft 189 kts 290°
2026-04-08 13:14 53.20844 -2.41755 10348 ft 189 kts 290°
2026-04-08 13:14 53.21425 -2.43715 10343 ft 188 kts 290°
2026-04-08 13:15 53.22005 -2.45673 10342 ft 188 kts 290°
2026-04-08 13:15 53.22585 -2.47632 10349 ft 189 kts 290°
2026-04-08 13:15 53.23166 -2.49598 10353 ft 189 kts 290°
2026-04-08 13:15 53.23741 -2.51541 10346 ft 189 kts 290°
2026-04-08 13:16 53.24321 -2.53508 10346 ft 189 kts 290°
2026-04-08 13:16 53.24901 -2.55474 10343 ft 189 kts 290°
2026-04-08 13:16 53.25481 -2.57434 10351 ft 189 kts 289°
2026-04-08 13:16 53.26061 -2.59407 10350 ft 189 kts 289°
2026-04-08 13:17 53.26639 -2.61370 10344 ft 188 kts 289°
2026-04-08 13:17 53.27216 -2.63333 10343 ft 188 kts 289°
2026-04-08 13:17 53.27792 -2.65294 10343 ft 188 kts 289°
2026-04-08 13:17 53.28368 -2.67257 10342 ft 188 kts 289°
2026-04-08 13:18 53.28935 -2.69191 10343 ft 188 kts 289°
2026-04-08 13:18 53.29508 -2.71145 10341 ft 187 kts 289°
2026-04-08 13:18 53.30081 -2.73102 10344 ft 187 kts 289°
2026-04-08 13:18 53.30620 -2.75078 10345 ft 185 kts 283°
2026-04-08 13:19 53.31028 -2.77114 10343 ft 184 kts 282°
2026-04-08 13:19 53.31468 -2.79135 10343 ft 185 kts 284°
2026-04-08 13:19 53.31934 -2.81144 10346 ft 185 kts 284°
2026-04-08 13:19 53.32383 -2.83128 10346 ft 185 kts 284°
2026-04-08 13:20 53.32836 -2.85141 10350 ft 185 kts 284°
2026-04-08 13:20 53.33293 -2.87156 10350 ft 185 kts 284°
2026-04-08 13:20 53.33748 -2.89174 10351 ft 186 kts 284°
2026-04-08 13:20 53.34205 -2.91196 10346 ft 186 kts 284°
2026-04-08 13:21 53.34661 -2.93216 10342 ft 185 kts 284°
2026-04-08 13:21 53.35116 -2.95236 10342 ft 185 kts 284°
2026-04-08 13:21 53.35568 -2.97247 10344 ft 185 kts 284°
2026-04-08 13:21 53.36020 -2.99262 10347 ft 185 kts 284°
2026-04-08 13:22 53.36466 -3.01247 10346 ft 185 kts 284°
2026-04-08 13:22 53.36918 -3.03265 10346 ft 185 kts 284°
2026-04-08 13:22 53.37369 -3.05278 10348 ft 185 kts 284°
2026-04-08 13:22 53.37820 -3.07294 10353 ft 185 kts 284°
2026-04-08 13:23 53.38273 -3.09318 10362 ft 186 kts 284°
2026-04-08 13:23 53.38725 -3.11344 10355 ft 186 kts 284°
2026-04-08 13:23 53.39176 -3.13368 10351 ft 185 kts 284°
2026-04-08 13:23 53.39759 -3.15275 10349 ft 191 kts 300°
2026-04-08 13:24 53.40585 -3.17029 10346 ft 192 kts 302°
2026-04-08 13:24 53.41432 -3.18743 10347 ft 192 kts 302°
2026-04-08 13:24 53.42233 -3.20532 10348 ft 190 kts 297°
2026-04-08 13:24 53.42992 -3.22345 10349 ft 190 kts 298°
2026-04-08 13:25 53.43763 -3.24148 10348 ft 190 kts 298°
2026-04-08 13:25 53.44533 -3.25952 10348 ft 190 kts 298°
2026-04-08 13:25 53.45301 -3.27758 10348 ft 190 kts 298°
2026-04-08 13:25 53.46067 -3.29561 10349 ft 190 kts 298°
2026-04-08 13:26 53.46826 -3.31344 10349 ft 190 kts 298°
2026-04-08 13:26 53.47594 -3.33152 10349 ft 190 kts 298°
2026-04-08 13:26 53.48362 -3.34961 10349 ft 190 kts 298°
2026-04-08 13:26 53.49129 -3.36771 10349 ft 190 kts 298°
2026-04-08 13:27 53.49896 -3.38581 10347 ft 190 kts 298°
2026-04-08 13:27 53.50662 -3.40391 10350 ft 190 kts 298°
2026-04-08 13:27 53.51428 -3.42201 10350 ft 190 kts 298°
2026-04-08 13:27 53.52194 -3.44012 10351 ft 190 kts 298°
2026-04-08 13:28 53.52959 -3.45823 10350 ft 190 kts 298°
2026-04-08 13:28 53.53724 -3.47634 10350 ft 190 kts 298°
2026-04-08 13:28 53.54478 -3.49423 10351 ft 190 kts 298°
2026-04-08 13:28 53.55241 -3.51232 10351 ft 190 kts 298°
2026-04-08 13:29 53.56007 -3.53050 10353 ft 190 kts 298°
2026-04-08 13:29 53.56770 -3.54861 10352 ft 190 kts 298°
2026-04-08 13:29 53.57534 -3.56676 10351 ft 190 kts 298°
2026-04-08 13:29 53.58297 -3.58491 10351 ft 190 kts 298°
2026-04-08 13:30 53.59060 -3.60307 10351 ft 190 kts 298°
2026-04-08 13:30 53.59812 -3.62098 10352 ft 190 kts 298°
2026-04-08 13:30 53.60573 -3.63915 10358 ft 189 kts 298°
2026-04-08 13:30 53.61332 -3.65724 10355 ft 189 kts 298°
2026-04-08 13:31 53.62089 -3.67528 10356 ft 188 kts 298°
2026-04-08 13:31 53.62843 -3.69331 10355 ft 188 kts 298°
2026-04-08 13:31 53.63596 -3.71130 10355 ft 188 kts 298°
2026-04-08 13:31 53.64351 -3.72936 10355 ft 188 kts 298°
2026-04-08 13:32 53.65103 -3.74735 10355 ft 188 kts 298°
2026-04-08 13:32 53.65845 -3.76513 10355 ft 188 kts 298°
2026-04-08 13:32 53.66597 -3.78316 10355 ft 188 kts 298°
2026-04-08 13:32 53.67349 -3.80119 10355 ft 188 kts 298°
2026-04-08 13:33 53.68100 -3.81924 10364 ft 188 kts 298°
2026-04-08 13:33 53.68854 -3.83736 10363 ft 189 kts 298°
2026-04-08 13:33 53.69611 -3.85554 10359 ft 189 kts 298°
2026-04-08 13:33 53.70368 -3.87374 10357 ft 189 kts 298°
2026-04-08 13:34 53.71114 -3.89171 10356 ft 189 kts 298°
2026-04-08 13:34 53.71870 -3.90991 10355 ft 189 kts 298°
2026-04-08 13:34 53.72624 -3.92812 10355 ft 189 kts 298°
2026-04-08 13:34 53.73377 -3.94629 10355 ft 189 kts 298°
2026-04-08 13:35 53.74131 -3.96450 10358 ft 189 kts 298°
2026-04-08 13:35 53.74886 -3.98274 10357 ft 189 kts 298°
2026-04-08 13:35 53.75640 -4.00097 10357 ft 189 kts 298°
2026-04-08 13:35 53.76394 -4.01922 10358 ft 189 kts 298°
2026-04-08 13:36 53.77138 -4.03723 10360 ft 189 kts 298°
2026-04-08 13:36 53.77891 -4.05549 10359 ft 189 kts 298°
2026-04-08 13:36 53.78645 -4.07377 10359 ft 189 kts 298°
2026-04-08 13:36 53.79398 -4.09204 10357 ft 189 kts 298°
2026-04-08 13:37 53.80150 -4.11030 10355 ft 189 kts 298°
2026-04-08 13:37 53.80900 -4.12851 10356 ft 189 kts 298°
2026-04-08 13:37 53.81652 -4.14681 10144 ft 181 kts 298°
2026-04-08 13:37 53.82324 -4.16297 9771 ft 159 kts 297°
2026-04-08 13:38 53.82933 -4.17798 9404 ft 152 kts 297°
2026-04-08 13:38 53.83523 -4.19233 9050 ft 150 kts 297°
2026-04-08 13:38 53.84113 -4.20674 8691 ft 148 kts 297°
2026-04-08 13:38 53.84697 -4.22106 8336 ft 147 kts 297°
2026-04-08 13:39 53.85307 -4.23620 7994 ft 176 kts 298°
2026-04-08 13:39 53.86062 -4.25454 7657 ft 199 kts 300°
2026-04-08 13:39 53.86871 -4.27404 7341 ft 204 kts 300°
2026-04-08 13:39 53.87681 -4.29392 7027 ft 205 kts 300°
2026-04-08 13:40 53.88488 -4.31369 6712 ft 199 kts 300°
2026-04-08 13:40 53.89233 -4.33186 6377 ft 185 kts 299°
2026-04-08 13:40 53.89949 -4.34951 6041 ft 180 kts 299°
2026-04-08 13:40 53.90802 -4.36499 5714 ft 186 kts 325°
2026-04-08 13:41 53.92095 -4.36961 5377 ft 195 kts 352°
2026-04-08 13:41 53.93455 -4.36974 5029 ft 195 kts 356°
2026-04-08 13:41 53.94811 -4.36892 4658 ft 194 kts 357°
2026-04-08 13:41 53.96159 -4.36774 4296 ft 194 kts 358°
2026-04-08 13:42 53.97502 -4.36647 3950 ft 193 kts 358°
2026-04-08 13:42 53.98839 -4.36517 3596 ft 192 kts 358°
2026-04-08 13:42 54.00170 -4.36387 3235 ft 191 kts 358°
2026-04-08 13:42 54.01494 -4.36259 2897 ft 189 kts 358°
2026-04-08 13:43 54.02747 -4.36135 2843 ft 180 kts 358°
2026-04-08 13:43 54.03982 -4.36009 2764 ft 177 kts 358°
2026-04-08 13:43 54.05220 -4.35885 2811 ft 182 kts 358°
2026-04-08 13:43 54.06509 -4.35769 2834 ft 187 kts 355°
2026-04-08 13:44 54.07658 -4.36261 2831 ft 156 kts 333°
2026-04-08 13:44 54.08631 -4.36892 2831 ft 146 kts 331°
2026-04-08 13:44 54.09561 -4.37547 2839 ft 143 kts 325°
2026-04-08 13:44 54.10169 -4.38770 2678 ft 138 kts 289°
2026-04-08 13:45 54.10438 -4.40322 2487 ft 142 kts 268°
2026-04-08 13:45 54.10263 -4.41983 2289 ft 144 kts 251°
2026-04-08 13:45 54.10012 -4.43636 2077 ft 144 kts 258°
2026-04-08 13:45 54.09942 -4.45347 1869 ft 144 kts 268°
2026-04-08 13:46 54.09988 -4.46882 1473 ft 126 kts 271°
2026-04-08 13:46 54.09990 -4.48363 1278 ft 124 kts 266°
2026-04-08 13:46 54.09896 -4.49724 1125 ft 109 kts 259°
2026-04-08 13:46 54.09747 -4.50908 1128 ft 99 kts 258°
2026-04-08 13:47 54.09625 -4.52048 1092 ft 98 kts 261°
2026-04-08 13:47 54.09509 -4.53182 1020 ft 100 kts 258°
2026-04-08 13:47 54.09352 -4.54318 853 ft 99 kts 256°
2026-04-08 13:47 54.09184 -4.55479 724 ft 102 kts 258°
2026-04-08 13:48 54.09048 -4.56665 585 ft 102 kts 261°
2026-04-08 13:48 54.08898 -4.57815 431 ft 98 kts 258°
2026-04-08 13:48 54.08759 -4.58950 357 ft 99 kts 259°
2026-04-08 13:48 54.08615 -4.60085 210 ft 95 kts 259°
2026-04-08 13:49 54.08483 -4.61135 64 ft 88 kts 259°
2026-04-08 13:49 54.08371 -4.62039 35 ft 58 kts 258°
2026-04-08 13:49 54.08311 -4.62521 39 ft 32 kts 258°
2026-04-08 13:49 54.08288 -4.62811 38 ft 17 kts 298°
2026-04-08 13:50 54.08346 -4.62953 37 ft 13 kts 329°
2026-04-08 13:50 54.08443 -4.62990 37 ft 16 kts 348°
2026-04-08 13:50 54.08548 -4.63029 40 ft 14 kts 345°
2026-04-08 13:50 54.08598 -4.63089 40 ft 5 kts 313°
2026-04-08 13:51 54.08641 -4.63155 40 ft 10 kts 315°
2026-04-08 13:51 54.08694 -4.63250 40 ft 12 kts 314°
2026-04-08 13:51 54.08728 -4.63268 40 ft 4 kts 63°
2026-04-08 13:51 54.08737 -4.63249 40 ft 0 kts 44°